Location: Doughton Park
(36.4224°N, 81.1835°W)
Time: 03:46:14
(UTC-04:00)

ISS - All Passes

Search period start: 24 October 2014 00:00
Search period end: 02 November 2014 23:00
Orbit: 413 x 416 km, 51.6° (Epoch: 24 October)

Date Brightness Start Highest point End Pass type
(mag) Time Alt. Az. Time Alt. Az. Time Alt. Az.
24 Oct - 13:09:21 10° SW 13:12:39 66° SE 13:15:57 10° NE daylight
24 Oct - 14:47:25 10° WNW 14:49:38 16° NNW 14:51:50 10° NNE daylight
24 Oct - 19:40:20 10° NNW 19:43:18 28° NNE 19:46:14 10° E visible
24 Oct - 21:17:05 10° WNW 21:19:55 26° SW 21:22:45 10° S visible
25 Oct - 12:20:33 10° SSW 12:23:33 32° SE 12:26:35 10° ENE daylight
25 Oct - 13:57:29 10° W 14:00:16 24° NNW 14:03:04 10° NNE daylight
25 Oct - 18:51:30 10° NNW 18:53:57 19° NNE 18:56:24 10° ENE daylight
25 Oct - 20:27:35 10° WNW 20:30:50 51° SW 20:34:04 10° SSE visible
26 Oct - 11:32:13 10° S 11:34:30 17° SE 11:36:46 10° E daylight
26 Oct - 13:07:48 10° WSW 13:10:57 39° NW 13:14:06 10° NE daylight
26 Oct - 18:02:49 10° N 18:04:30 13° NNE 18:06:10 10° NE daylight
26 Oct - 19:38:19 10° NW 19:41:39 80° NE 19:44:58 10° SE visible
27 Oct - 12:18:20 10° SW 12:21:39 75° NW 12:24:59 10° NE daylight
27 Oct - 13:57:15 10° NW 13:58:49 13° NNW 14:00:23 10° N daylight
27 Oct - 18:49:09 10° NW 18:52:21 42° NE 18:55:32 10° ESE daylight
27 Oct - 20:26:36 10° W 20:28:46 16° SW 20:30:56 10° S visible
28 Oct - 11:29:09 10° SSW 11:32:23 54° SE 11:35:39 10° ENE daylight
28 Oct - 13:06:55 10° WNW 13:09:17 18° NNW 13:11:40 10° NNE daylight
28 Oct - 18:00:06 10° NNW 18:02:56 25° NNE 18:05:46 10° E daylight
28 Oct - 19:36:38 10° WNW 19:39:37 31° SW 19:42:35 10° SSE visible
29 Oct - 10:40:17 10° SSW 10:43:09 27° SE 10:46:02 10° ENE daylight
29 Oct - 12:16:53 10° W 12:19:47 27° NNW 12:22:41 10° NNE daylight
29 Oct - 17:11:09 10° NNW 17:13:25 17° NNE 17:15:40 10° ENE daylight
29 Oct - 18:47:04 10° NW 18:50:21 62° SW 18:53:38 10° SE daylight
30 Oct - 09:52:02 10° SSE 09:53:57 15° SE 09:55:52 10° E daylight
30 Oct - 11:27:06 10° WSW 11:30:19 46° NW 11:33:32 10° NE daylight
30 Oct - 13:07:21 10° NNW 13:07:40 10° NNW 13:07:59 10° NNW daylight
30 Oct - 16:22:24 10° N 16:23:47 12° NNE 16:25:09 10° NE daylight
30 Oct - 17:57:40 10° NW 18:01:00 66° NE 18:04:17 10° ESE daylight
30 Oct - 19:36:56 10° WSW 19:37:13 10° SW 19:37:30 10° SW visible
31 Oct - 10:37:34 10° SW 10:40:53 89° NW 10:44:12 10° NE daylight
31 Oct - 12:16:09 10° WNW 12:17:58 14° NNW 12:19:47 10° N daylight
31 Oct - 17:08:24 10° NNW 17:11:30 36° NE 17:14:36 10° ESE daylight
31 Oct - 18:45:32 10° W 18:47:59 19° SW 18:50:27 10° S daylight
01 Nov - 09:48:18 10° SSW 09:51:28 44° SE 09:54:39 10° ENE daylight
01 Nov - 11:25:45 10° W 11:28:17 20° NNW 11:30:50 10° NNE daylight
01 Nov - 16:19:13 10° NNW 16:21:55 22° NNE 16:24:36 10° E daylight
01 Nov - 17:55:33 10° WNW 17:58:39 37° SW 18:01:44 10° SSE daylight
02 Nov - 07:59:26 10° S 08:02:06 23° SE 08:04:47 10° ENE daylight
02 Nov - 09:35:38 10° W 09:38:38 31° NW 09:41:39 10° NNE daylight
02 Nov - 14:30:10 10° NNW 14:32:12 15° NNE 14:34:15 10° ENE daylight
02 Nov - 16:05:54 10° NW 16:09:13 76° SW 16:12:31 10° SE daylight
